"Pseudo-MPEC" for P21ZzU7

Created 2024 Oct 4 21:22:29 UT using Find_Orb

Click here for an explanation of pseudo-MPECs

 
 Astrometry: 
     P21ZzU7* C2024 09 29.38556000 16 57.684-01 41 37.28   ~9TBb 21.63wXNEOCPF52
     P21ZzU7  C2024 09 29.39625300 16 59.741-01 42 01.39   ~9TBb 21.41wXNEOCPF52
     P21ZzU7  C2024 09 29.40871200 17 02.101-01 42 29.34   ~9TBb 21.50wXNEOCPF52
     P21ZzU7  C2024 09 29.41944800 17 04.147-01 42 53.48   ~9TBb 21.52wXNEOCPF52
     P21ZzU7  C2024 09 29.49257800 17 18.185-01 45 38.97   ~9TMb 21.33GVNEOCPF52
     P21ZzU7  C2024 09 29.49323800 17 18.332-01 45 40.51   ~9TMb 21.53GVNEOCPF52
     P21ZzU7  C2024 09 29.49389700 17 18.423-01 45 41.63   ~9TMb 21.35GVNEOCPF52

Station data:
(F52) Pan-STARRS 2, Haleakala  (N20.707382 W156.255910)  US/Hawaii.
   Observers J. Bulger, T. Dukes, T. Lowe, A. Schultz, M. Willman. Measurers
   K. Chambers, S. Chastel, T. de Boer, L. Denneau, J. Fairlamb, H.
   Flewelling, M. Huber, C.-C. Lin, E. Magnier, Y. Ramanjooloo, R. Wainscoat,
   R. Weryk. 1.8-m Ritchey-Chrétien + CCD.

Orbital elements:  P21ZzU7
   Perihelion 2024 Nov 4.62529 +/- 24.7 TT = 15:00:25 (JD 2460619.12529)
Epoch 2024 Sep 29.0 TT = JDT 2460582.5   Earth MOID: 0.0888      AutoNEOCP
M 345.78461558 +/- 13               (J2000 ecliptic)
n   0.38813026 +/- 0.182            Peri.  221.04729 +/- 27
a   1.86130571 +/- 0.582            Node   182.47599 +/- 0.32
e   0.4305689 +/- 0.153             Incl.    5.94141 +/- 3.0
P   2.539/927.506d         H 25.33  G  0.15   U 11.6  SR
q 1.05988533 +/- 0.109    Q 2.66272609 +/- 1.72
From 7 observations 2024 Sept. 29 (2.6 hr); mean residual 0".16
Residuals in arcseconds: 
240929 F52  .05-  .11-    240929 F52  .09-  .18+    240929 F52  .27-  .21+    
240929 F52  .18+  .09-    240929 F52  .00   .11-    
240929 F52  .07-  .08+    240929 F52  .29+  .16-    

Ephemerides (geocentric):
Date (UTC) HH   RA             Dec           delta  r     elong  mag " sig PA
---- --------  ------------   ------------  ------ ------ -----  --- --------
2024 10 04 21  00 39 53.258   -05 32 39.57  .11275 1.1113 169.8 21.4 7182  66
2024 10 04 22  00 40 05.231   -05 34 36.30  .11264 1.1111 169.7 21.4 7307  66
2024 10 04 23  00 40 17.229   -05 36 33.19  .11253 1.1110 169.7 21.4 7433  66
2024 10 05 00  00 40 29.252   -05 38 30.24  .11243 1.1109 169.6 21.4 7561  66
2024 10 05 01  00 40 41.299   -05 40 27.45  .11232 1.1107 169.6 21.4 7690  66
2024 10 05 02  00 40 53.372   -05 42 24.82  .11221 1.1106 169.5 21.4 7821  66
2024 10 05 03  00 41 05.468   -05 44 22.35  .11210 1.1105 169.5 21.4 7954  66
2024 10 05 04  00 41 17.590   -05 46 20.04  .11200 1.1103 169.4 21.4 8089  66
2024 10 05 05  00 41 29.736   -05 48 17.89  .11189 1.1102 169.4 21.4 8226  66
2024 10 05 06  00 41 41.908   -05 50 15.90  .11179 1.1101 169.3 21.4 8364  66
2024 10 05 07  00 41 54.104   -05 52 14.07  .11168 1.1099 169.3 21.4 8504  66
2024 10 05 08  00 42 06.325   -05 54 12.39  .11157 1.1098 169.2 21.4 8646  66
2024 10 05 09  00 42 18.571   -05 56 10.88  .11147 1.1097 169.2 21.4 8790  66
2024 10 05 10  00 42 30.842   -05 58 09.52  .11136 1.1095 169.1 21.4 8936  66
2024 10 05 11  00 42 43.137   -06 00 08.31  .11126 1.1094 169.1 21.4 9084  66
2024 10 05 12  00 42 55.458   -06 02 07.27  .11115 1.1093 169.0 21.4 9234  66
2024 10 05 13  00 43 07.804   -06 04 06.38  .11105 1.1091 169.0 21.4 9386  66
2024 10 05 14  00 43 20.175   -06 06 05.65  .11095 1.1090 168.9 21.4 9540  65
2024 10 05 15  00 43 32.572   -06 08 05.07  .11084 1.1089 168.9 21.4 9696  65
2024 10 05 16  00 43 44.993   -06 10 04.65  .11074 1.1087 168.9 21.4 9854  65
2024 10 05 17  00 43 57.440   -06 12 04.38  .11063 1.1086 168.8 21.4 167'  65
2024 10 05 18  00 44 09.911   -06 14 04.27  .11053 1.1085 168.8 21.4 170'  65
2024 10 05 19  00 44 22.408   -06 16 04.31  .11043 1.1084 168.7 21.4 172'  65
2024 10 05 20  00 44 34.931   -06 18 04.51  .11032 1.1082 168.7 21.4 175'  65
2024 10 05 21  00 44 47.478   -06 20 04.86  .11022 1.1081 168.6 21.4 178'  65
2024 10 05 22  00 45 00.051   -06 22 05.36  .11012 1.1080 168.6 21.4 181'  65
2024 10 05 23  00 45 12.650   -06 24 06.01  .11002 1.1078 168.5 21.4 184'  65
2024 10 06 00  00 45 25.273   -06 26 06.82  .10991 1.1077 168.5 21.4 187'  65
2024 10 06 01  00 45 37.922   -06 28 07.78  .10981 1.1076 168.4 21.4 190'  65
2024 10 06 02  00 45 50.597   -06 30 08.89  .10971 1.1074 168.4 21.4 193'  65
2024 10 06 03  00 46 03.297   -06 32 10.15  .10961 1.1073 168.3 21.4 196'  65
2024 10 06 04  00 46 16.023   -06 34 11.56  .10951 1.1072 168.3 21.4 199'  65
2024 10 06 05  00 46 28.774   -06 36 13.12  .10941 1.1071 168.2 21.4 202'  65
2024 10 06 06  00 46 41.551   -06 38 14.83  .10931 1.1069 168.2 21.4 205'  65
2024 10 06 07  00 46 54.353   -06 40 16.69  .10921 1.1068 168.1 21.4 208'  65
2024 10 06 08  00 47 07.181   -06 42 18.70  .10911 1.1067 168.1 21.4 212'  65
2024 10 06 09  00 47 20.035   -06 44 20.86  .10901 1.1065 168.0 21.4 215'  65
2024 10 06 10  00 47 32.914   -06 46 23.16  .10891 1.1064 168.0 21.4 218'  65
2024 10 06 11  00 47 45.819   -06 48 25.62  .10881 1.1063 167.9 21.4 222'  65
2024 10 06 12  00 47 58.750   -06 50 28.22  .10871 1.1062 167.9 21.4 225'  65
2024 10 06 13  00 48 11.706   -06 52 30.96  .10861 1.1060 167.8 21.4 229'  65
2024 10 06 14  00 48 24.689   -06 54 33.85  .10851 1.1059 167.8 21.4 232'  65
2024 10 06 15  00 48 37.697   -06 56 36.89  .10841 1.1058 167.7 21.4 236'  65
2024 10 06 16  00 48 50.731   -06 58 40.07  .10831 1.1057 167.7 21.4 239'  65
2024 10 06 17  00 49 03.791   -07 00 43.40  .10821 1.1055 167.6 21.4 243'  65
2024 10 06 18  00 49 16.877   -07 02 46.87  .10812 1.1054 167.6 21.4 247'  65
2024 10 06 19  00 49 29.988   -07 04 50.49  .10802 1.1053 167.5 21.4 250'  65
2024 10 06 20  00 49 43.126   -07 06 54.24  .10792 1.1051 167.5 21.4 254'  64